Tracking 28052 objects as of 25-Sep-2023
HD Live streaming from Space Station
objects crossing your sky now

STARLINK-2432

Track STARLINK-2432 now!
10-day predictions
STARLINK-2432 is classified as:


NORAD ID: 47840
Int'l Code: 2021-018BF
Perigee: 553.2 km
Apogee: 555.2 km
Inclination: 53.1 °
Period: 95.6 minutes
Semi major axis: 6925 km
RCS: Unknown
Launch date: March 11, 2021
Source: United States (US)
Launch site: AIR FORCE EASTERN TEST RANGE (AFETR)
Your satellite tracking list
Your tracking list is empty




NASA's NSSDC Master Catalog

Two Line Element Set (TLE):
1 47840U 21018BF  23267.40126865  .00016003  00000-0  10895-2 0  9992
2 47840  53.0533 299.7052 0001427 105.6884 254.4263 15.06443695141638
Source of the keplerian elements: AFSPC